Погода в Пало-Альто

США     37°25′39″N   122°07′34″W
темп.,
°C
ветер,
м/с
пор.,
м/с
влажн.,
%
обл.,
%
осадки,
мм/ч
давл.,
гПа
погр.,
м
16 октября, сб
сб1623:00+16ююв11435 0.0 101911
02:00+15юв11410 0.0 101811
05:00+15юв22400 0.0 101711
08:00+15вюв12435 0.0 101713
11:00+21всв12310 0.0 1016266
14:00+23сз33270 0.0 1014639
17:00+23з34252 0.0 1013283
20:00+16юз1240100 0.0 101418
17 октября, вс
вс1723:00+15юз113815 0.0 101413
02:00+14ююз22374 0.0 101313
05:00+13юз2242100 0.0 101215
08:00+13юз2243100 0.0 101224
11:00+19ююз264097 0.0 1012722
14:00+19юз6104788 0.0 1010728
17:00+15юз71069100 0.0 1011677
20:00+12з4884100 2.3 1013730
18 октября, пн
пн1823:00+10зюз468627 2.6 1015424
02:00+9юз348822 0.1 1016346
05:00+10зюз238251 0.1 1016208
08:00+10зюз248213 0.0 1018268
11:00+13зсз44620 0.0 1018949
14:00+15сз45535 0.0 1017959
17:00+14сз44560 0.0 1016695
20:00+10з23785 0.0 1017112
19 октября, вт
вт1923:00+9зюз12810 0.0 1017153
02:00+9ююв22810 0.0 101646
05:00+9ююв22790 0.0 101647
08:00+9юв22730 0.0 101665
11:00+16с02430 0.0 1016680
14:00+17з344125 0.0 1015984
17:00+16юз46424 0.0 1015476
20:00+11ююз345894 0.0 101591
20 октября, ср
ср2023:00+10ю3353100 0.0 101680
02:00+12ююв3558100 0.0 1017144
05:00+13юв3562100 0.1 1017148
08:00+14юв2453100 0.0 1017123
11:00+15св0258100 0.3 1019140
14:00+17зсз2359100 0.1 1018442
17:00+15сз2278100 0.2 101779
20:00+14ссз2284100 0.4 101960